This demonstration page uses our WeatherBlox Daily Observations layout. Learn more.

Left ArrowRight Arrow

40.92945, -100.16068

Hourly Observations for February 15, 2020

Temp ( °F °C ) Dew Point ( °F °C ) Humidity (%) Winds ( mph kmh ) Pressure ( in mb ) Visibility ( mi km ) Precip ( " mm )
12:15 am 00:15 Clear 30 -1.2 25 -4 82 82 S 10 17 29.96 1015 10 16 N/A
12:35 am 00:35 Clear 30 -1.3 25 -4.1 81 81 S 7 11 29.97 1015 10 16 N/A
12:55 am 00:55 Clear 29 -1.6 24 -4.2 83 83 S 7 11 29.97 1015 10 16 N/A
1:15 am 01:15 Clear 28 -2.1 24 -4.4 84 84 S 6 9 29.98 1015 10 16 N/A
1:35 am 01:35 Clear 28 -2.3 24 -4.4 86 86 N N/A 29.99 1016 10 16 N/A
1:55 am 01:55 Clear 26 -3.5 23 -5.1 89 89 W 5 7 30.02 1017 10 16 N/A
2:15 am 02:15 Clear 25 -3.9 22 -5.3 90 90 WNW 6 9 30.03 1017 10 16 N/A
2:35 am 02:35 Clear 24 -4.4 22 -5.7 91 91 NNW 8 13 30.05 1018 10 16 N/A
2:55 am 02:55 Clear 25 -3.8 23 -5.2 90 90 NNW 9 15 30.04 1017 10 16 N/A
3:15 am 03:15 Clear 24 -4.6 21 -5.9 91 91 NNW 6 9 30.05 1018 10 16 N/A
3:35 am 03:35 Clear 24 -4.6 22 -5.7 92 92 NNW 7 11 30.06 1018 10 16 N/A
3:55 am 03:55 Clear 23 -5.2 21 -6.2 93 93 NW 8 13 30.08 1019 10 16 N/A
4:15 am 04:15 Clear 23 -5 21 -6.1 92 92 NW 7 11 30.09 1019 10 16 N/A
4:35 am 04:35 Clear 23 -5.1 20 -6.5 90 90 WNW 7 11 30.09 1019 10 16 N/A
4:55 am 04:55 Clear 22 -5.3 21 -6.2 93 93 WNW 8 13 30.09 1019 10 16 N/A
5:15 am 05:15 Clear 24 -4.6 22 -5.8 91 91 WNW 7 11 30.10 1019 10 16 N/A
5:35 am 05:35 Clear 24 -4.5 22 -5.7 91 91 WNW 7 11 30.11 1020 10 16 N/A
5:55 am 05:55 Clear 23 -5 21 -6.1 92 92 WNW 8 13 30.12 1020 10 16 N/A
6:15 am 06:15 Clear 23 -5.1 21 -6.2 92 92 WNW 7 11 30.14 1021 10 16 N/A
6:35 am 06:35 Clear 22 -5.5 20 -6.5 93 93 NW 5 7 30.14 1021 10 16 N/A
6:55 am 06:55 Clear 22 -5.6 20 -6.8 91 91 W 5 7 30.15 1021 10 16 N/A
7:15 am 07:15 Clear 23 -5.2 20 -6.4 91 91 WNW 7 11 30.17 1022 10 16 N/A
7:35 am 07:35 Sunny 23 -5 21 -6.2 91 91 WNW 6 9 30.17 1022 10 16 N/A
7:55 am 07:55 Sunny 23 -5.1 20 -6.4 91 91 WNW 8 13 30.19 1022 10 16 N/A
8:15 am 08:15 Sunny 25 -4.1 22 -5.7 89 89 WNW 8 13 30.18 1022 10 16 N/A
8:35 am 08:35 Sunny 27 -2.8 24 -4.7 87 87 WNW 9 15 30.18 1022 10 16 N/A
8:55 am 08:55 Sunny 28 -2 25 -4.1 86 86 WNW 9 15 30.18 1022 10 16 N/A
9:15 am 09:15 Sunny 31 -0.7 26 -3.5 82 82 WNW 9 15 30.17 1022 10 16 N/A
9:35 am 09:35 Sunny 33 0.3 27 -3 79 79 W 8 13 30.17 1022 10 16 N/A
9:55 am 09:55 Sunny 35 1.4 26 -3.1 72 72 W 6 9 30.16 1021 10 16 N/A
10:15 am 10:15 Sunny 36 2.2 27 -2.8 70 70 WNW 6 9 30.16 1021 10 16 N/A
10:35 am 10:35 Sunny 37 3 26 -3.1 65 65 N N/A 30.15 1021 10 16 N/A
10:55 am 10:55 Sunny 38 3.6 26 -3.5 60 60 N N/A 30.14 1021 10 16 N/A
11:15 am 11:15 Sunny 39 4.1 26 -3.6 58 58 N N/A 30.14 1021 10 16 N/A
11:35 am 11:35 Sunny 41 4.8 25 -3.9 54 54 WNW 7 11 30.13 1020 10 16 N/A
11:55 am 11:55 Sunny 42 5.4 26 -3.5 53 53 W 7 11 30.12 1020 10 16 N/A
12:15 pm 12:15 Sunny 43 6 26 -3.6 51 51 WNW 6 9 30.12 1020 10 16 N/A
12:35 pm 12:35 Sunny 43 6.2 25 -3.9 49 49 W 3 6 30.11 1020 10 16 N/A
12:55 pm 12:55 Sunny 44 6.9 25 -4.1 46 46 NW 3 6 30.09 1019 10 16 N/A
1:15 pm 13:15 Sunny 45 7.2 24 -4.7 43 43 WSW 3 6 30.08 1019 10 16 N/A
1:35 pm 13:35 Sunny 45 7.2 23 -4.8 43 43 N N/A 30.07 1018 10 16 N/A
1:55 pm 13:55 Sunny 47 8.2 22 -5.6 37 37 WNW 6 9 30.05 1018 10 16 N/A
2:15 pm 14:15 Sunny 47 8.6 21 -6.1 35 35 W 3 6 30.04 1017 10 16 N/A
2:35 pm 14:35 Sunny 48 8.9 19 -7.4 31 31 N N/A 30.03 1017 10 16 N/A
2:55 pm 14:55 Sunny 48 9.1 19 -7 32 32 WSW 5 7 30.02 1017 10 16 N/A
3:15 pm 15:15 Sunny 48 9.1 18 -7.7 30 30 WNW 7 11 30.02 1017 10 16 N/A
3:35 pm 15:35 Sunny 49 9.3 17 -8.3 28 28 WNW 3 6 30.02 1017 10 16 N/A
3:55 pm 15:55 Sunny 49 9.5 18 -7.7 29 29 N N/A 30.02 1016 10 16 N/A
4:15 pm 16:15 Sunny 50 9.8 18 -7.8 28 28 WSW 10 17 30.00 1016 10 16 N/A
4:35 pm 16:35 Sunny 50 9.8 19 -7.4 29 29 SW 10 17 30.00 1016 10 16 N/A
4:55 pm 16:55 Sunny 49 9.5 19 -7.5 30 30 SW 9 15 30.01 1016 10 16 N/A
5:15 pm 17:15 Sunny 49 9.4 18 -7.8 29 29 SW 7 11 30.00 1016 10 16 N/A
5:35 pm 17:35 Sunny 47 8.4 19 -7.4 32 32 WSW 7 11 30.02 1016 10 16 N/A
5:55 pm 17:55 Sunny 42 5.8 18 -8 37 37 SW 7 11 30.04 1017 10 16 N/A
6:15 pm 18:15 Clear 42 5.4 17 -8.5 36 36 SSW 6 9 30.04 1017 10 16 N/A
6:35 pm 18:35 Clear 39 3.8 16 -9 39 39 SSW 7 11 30.07 1018 10 16 N/A
6:55 pm 18:55 Clear 37 2.6 17 -8.6 44 44 SSW 7 11 30.08 1019 10 16 N/A
7:15 pm 19:15 Clear 36 2.3 17 -8.2 46 46 SSW 8 13 30.09 1019 10 16 N/A
7:35 pm 19:35 Clear 38 3.5 18 -8 43 43 SSW 10 17 30.07 1018 10 16 N/A
7:55 pm 19:55 Clear 39 4 19 -7.2 44 44 SW 13 20 30.07 1018 10 16 N/A
8:15 pm 20:15 Partly Cloudy 39 4.1 20 -6.7 46 46 SSW 10 17 30.07 1018 10 16 N/A
8:35 pm 20:35 Mostly Cloudy 40 4.2 20 -6.6 46 46 SSW 9 15 30.07 1018 10 16 N/A
8:55 pm 20:55 Partly Cloudy 38 3.6 19 -7 46 46 SSW 9 15 30.06 1018 10 16 N/A
9:15 pm 21:15 Mostly Cloudy 38 3.1 19 -7 48 48 SSW 8 13 30.08 1019 10 16 N/A
9:35 pm 21:35 Cloudy 38 3.6 19 -7.1 46 46 SSW 12 19 30.07 1018 10 16 N/A
9:55 pm 21:55 Mostly Cloudy 39 3.8 18 -7.6 44 44 SSW 10 17 30.07 1018 10 16 N/A
10:15 pm 22:15 Cloudy 39 4.1 18 -7.6 43 43 SSW 9 15 30.08 1019 10 16 N/A
10:35 pm 22:35 Cloudy 39 4.1 18 -7.6 43 43 SSW 8 13 30.08 1019 10 16 N/A
10:55 pm 22:55 Cloudy 39 3.9 18 -7.6 43 43 SSW 8 13 30.07 1018 10 16 N/A
11:15 pm 23:15 Cloudy 38 3.6 18 -7.6 44 44 SSW 7 11 30.08 1019 10 16 N/A
11:35 pm 23:35 Cloudy 38 3.1 18 -7.6 46 46 S 8 13 30.09 1019 10 16 N/A
11:55 pm 23:55 Cloudy 37 2.8 18 -7.8 46 46 SSW 9 15 30.09 1019 10 16 N/A

Powered by AerisWeather